Home > Time Zones > World Clock > Weather > Serbia > Niš > Past weeks

Flag Weather past 2 weeks in Niš, Serbia

Now
41 °F

Passing clouds.


Feels Like: 41 °F
Forecast: 32 / 46 °F
Wind: 1 mph from North

Location: Nis Airport

Current Time: Nov 23, 2014 at 5:21:18 PM

Latest Report: Nov 23, 2014 at 5:00 PM


Visibility: N/A

Pressure: 30.36 "Hg

Humidity: 76%

Dew point: 34 °F

Location of NišLocation

Historic Weather in Niš — Graph

°F

Niš temperature yesterday

Maximum temperature yesterday: 45 °F (at 10:30 AM)
Minimum temperature yesterday: 39 °F (at 8:30 PM)
Average temperature yesterday: 43 °F

Past Weeks' High & Low Weather Summary

 TemperatureHumidityPressure
High64 °F (Nov 17, 1:00 PM)100% (Nov 9, 6:30 AM)30.42 "Hg (Nov 9, 6:30 AM)
Low36 °F (Nov 23, 6:00 AM)56% (Nov 17, 3:00 PM)29.83 "Hg (Nov 13, 3:30 AM)
Average50 °F83%30.06 "Hg
* Reported Nov 8 4:00 PM — Nov 23 4:00 PM, Niš, Weather by CustomWeather, © 2014

Note: Actual official high and low records may vary slightly from our data, if they occured in-between our weather recording intervals... More about our weather records

Advertising

Niš weather history for previous 24 hours

 ConditionsComfort  
Time TempWeatherWind HumidityBarometerVisibility
4:00 PM
Nov 23
43 °FPassing clouds.5 mph71%30.36 "HgN/A
3:30 PM45 °FScattered clouds.7 mph66%30.36 "HgN/A
3:00 PM46 °FScattered clouds.6 mph62%30.36 "HgN/A
2:30 PM46 °FScattered clouds.6 mph62%30.36 "HgN/A
2:00 PM46 °FScattered clouds.5 mph62%30.36 "HgN/A
1:30 PM46 °FScattered clouds.7 mph62%30.39 "HgN/A
1:00 PM46 °FPartly sunny.7 mph62%30.39 "HgN/A
12:30 PM46 °FPartly sunny.7 mph62%30.39 "HgN/A
12:00 PM45 °FPartly sunny.5 mph66%30.39 "Hg5 mi
11:30 AM46 °FPartly sunny.3 mph66%30.39 "Hg4 mi
11:00 AM43 °FPartly sunny.1 mph76%30.42 "Hg4 mi
10:30 AM43 °FFog.1 mph76%30.42 "Hg3 mi
10:00 AM41 °FFog.2 mph81%30.42 "Hg3 mi
9:30 AM39 °FPartly sunny.3 mph93%30.42 "Hg4 mi
9:00 AM39 °FPartly sunny.2 mph93%30.39 "Hg4 mi
8:30 AM39 °FPartly sunny.No wind93%30.39 "Hg4 mi
8:00 AM39 °FPartly sunny.2 mph93%30.39 "Hg4 mi
7:30 AM39 °FPartly sunny.3 mph100%30.39 "Hg4 mi
7:00 AM37 °FPartly sunny.3 mph100%30.39 "Hg4 mi
6:30 AM37 °FFog.2 mph100%30.39 "Hg3 mi
6:00 AM36 °FFog.1 mph100%30.39 "Hg3 mi
5:30 AM37 °FPassing clouds.No wind93%30.36 "Hg4 mi
5:00 AM37 °FPassing clouds.No wind100%30.36 "Hg4 mi
4:30 AM37 °FPassing clouds.No wind93%30.36 "Hg4 mi
4:00 AM37 °FPassing clouds.1 mph93%30.36 "Hg4 mi
3:30 AM37 °FPassing clouds.No wind93%30.36 "Hg4 mi
3:00 AM37 °FPassing clouds.1 mph100%30.36 "HgN/A
2:30 AM37 °FPassing clouds.2 mph100%30.36 "HgN/A
2:00 AM37 °FPassing clouds.2 mph100%30.36 "HgN/A
1:30 AM39 °FPassing clouds.2 mph93%30.36 "HgN/A
1:00 AM39 °FPassing clouds.2 mph87%30.36 "HgN/A
12:30 AM39 °FPassing clouds.No wind87%30.36 "HgN/A
12:00 AM41 °FPassing clouds.1 mph81%30.36 "HgN/A
11:30 PM
Nov 22
41 °FPassing clouds.2 mph81%30.36 "HgN/A
11:00 PM41 °FPassing clouds.2 mph81%30.36 "HgN/A
10:30 PM41 °FPassing clouds.1 mph81%30.36 "HgN/A
10:00 PM41 °FPassing clouds.1 mph81%30.36 "HgN/A
9:30 PM41 °FPassing clouds.1 mph81%30.36 "HgN/A
9:00 PM41 °FPassing clouds.1 mph81%30.36 "HgN/A
8:30 PM39 °FPassing clouds.No wind87%30.36 "HgN/A
8:00 PM41 °FPassing clouds.No wind76%30.33 "HgN/A
7:30 PM43 °FPassing clouds.1 mph71%30.33 "HgN/A
7:00 PM43 °FPassing clouds.1 mph71%30.33 "HgN/A
6:30 PM43 °FPassing clouds.1 mph71%30.33 "HgN/A
6:00 PM43 °FPassing clouds.1 mph71%30.33 "HgN/A
5:30 PM43 °FPassing clouds.5 mph71%30.33 "HgN/A
5:00 PM45 °FPassing clouds.2 mph66%30.33 "HgN/A
Weather by CustomWeather, © 2014

See weather overviewHow to use our weather pages